Location: Fouquenies
(49.4624°N, 2.0492°E)
Time: 07:00:43
(UTC+00:00)

Resurs 01 Rocket - Pass Details

Date: 03 February 2023
Orbit: 632 x 643 km, 97.9° (Epoch: 22 March)

Event Time Altitude Azimuth Distance (km) Brightness Sun altitude
Exits shadow 19:00:31 11° 14° (NNE) 2,007 4.0 -21.3°
Drops below altitude 10° 19:00:39 10° 13° (NNE) 2,051 4.1 -21.3°
Sets 19:03:18 0° 358° (N) 2,967 5.1 -21.7°
